[[{"header":{"parameterUnit":"m.s-1","parameterCategory":1,"la1":30.2991,"la2":30.254,"lo1":-89.0895,"lo2":-89.0444,"dy":0.0017,"dx":0.0017,"nx":28,"ny":28,"refTime":"2025-06-08T21:00:00:Z","depth":0,"parameterNumber":2,"parameterNumberName":"U-component_of_WINDS"},"data":[0,0,0,0,0,0,0,0,0,0,0,0,0,0,0,0,0,0,0,0,0,0,0,0,0,0,0,0,0,0,0,0,0,0,0,0,0,0,0,0,0,0,0,0,0,0,0,0,0,0,0,0,0,0,0,0,0,0,4.5854,4.5855,0,4.6009,4.6011,4.6013,4.5991,4.5989,4.5986,4.5984,4.6144,4.615,4.6157,0,0,0,0,0,0,0,0,0,0,0,0,0,4.5536,4.5542,4.5853,4.5855,4.5857,4.6009,4.6011,4.6013,4.5992,4.5989,4.5986,4.5983,4.6142,4.615,4.6158,0,0,0,0,0,0,0,0,0,0,0,0,0,4.5681,4.5544,4.5853,4.5865,4.5868,4.6009,4.6011,4.6014,4.5993,4.5989,4.5985,4.5981,4.6139,4.6149,4.6159,4.6298,0,0,4.6189,4.6194,0,0,0,0,0,0,0,0,4.5673,4.5693,4.5861,4.5864,4.5868,4.5977,4.5958,4.6109,4.5994,4.5945,4.5984,4.5979,4.6092,4.6105,4.6143,4.6306,4.6313,4.619,4.6196,4.6201,4.6203,0,0,0,0,0,0,0,4.5663,4.5686,4.5915,4.5864,4.5868,4.5862,4.5878,4.5986,4.6038,4.5949,4.5948,4.5967,4.6093,4.6133,4.6147,4.6315,4.619,4.6199,4.6205,4.6209,4.6596,4.66,0,0,0,0,0,0,4.5649,4.5677,4.591,4.592,4.5759,4.5871,4.5889,4.5946,4.6037,4.6047,4.597,4.5965,4.6118,4.6135,4.6152,4.6318,4.62,4.621,4.6216,4.6592,4.6597,4.6602,0,0,0,0,0,0,4.5643,4.567,4.5904,4.5798,4.5828,4.588,4.5944,4.5951,4.5992,4.6053,4.6062,4.6002,4.6116,4.6138,4.6261,4.6324,4.6214,4.6223,4.6587,4.6593,4.6599,4.6654,0,0,0,0,0,0,4.5634,4.5668,4.5722,4.58,4.5833,4.6011,4.5948,4.5957,4.6009,4.6004,4.6085,4.6095,4.6114,4.6246,4.6271,4.6336,4.6231,4.6581,4.659,4.6597,4.6647,4.6661,4.6674,0,0,0,0,0,4.5622,4.5732,4.5725,4.5753,4.5902,4.6015,4.6034,4.6054,4.6014,4.6068,4.6107,4.6092,4.6313,4.6259,4.6287,4.6355,4.6577,4.6587,4.6597,4.6641,4.6659,4.6674,0,0,0,0,0,0,4.5661,4.5743,4.5736,4.5874,4.5937,4.6011,4.608,4.6073,4.6149,4.6141,4.6163,4.6182,4.6305,4.6343,4.6281,4.6493,4.644,4.6455,4.6464,4.6481,4.6495,4.6482,4.624,0,0,0,0,0,4.5686,4.5771,4.5837,4.5953,4.5985,4.6027,4.6077,4.6086,4.6153,4.618,4.6228,4.6293,4.6377,4.6432,4.6512,4.6653,4.6668,4.6713,4.6727,4.6738,4.675,4.6824,4.6844,4.6633,4.6633,4.6633,0,0,4.5738,4.5793,4.5845,4.5962,4.6012,4.6098,4.605,4.6144,4.6208,4.6194,4.6312,4.635,4.6424,4.6555,4.6616,4.6591,4.6812,4.675,4.6758,4.6765,4.6836,4.6856,4.6873,4.664,4.6639,4.6638,0,0,4.5876,4.5927,4.6027,4.6078,4.6154,4.6181,4.6205,4.628,4.6303,4.6422,4.6413,4.6489,4.6634,4.6686,4.6732,4.6887,4.6875,4.6913,4.6983,4.7055,4.7071,4.7086,4.7138,4.7157,4.6926,4.6926,4.6926,0,4.593,4.606,4.608,4.6174,4.6224,4.6216,4.6316,4.6365,4.6464,4.6499,4.6469,4.6648,4.6698,4.684,4.6877,4.6916,4.6942,4.6903,4.7067,4.7082,4.7096,4.7146,4.7166,4.693,4.6929,4.6929,4.6928,0,4.6122,4.6212,4.6284,4.6378,4.6437,4.6534,4.6567,4.6624,4.6629,4.6658,4.6778,4.6837,4.6928,4.6963,4.6969,4.7105,4.7086,4.7062,4.7009,4.712,4.7167,4.7187,4.6935,4.6934,4.6933,4.6932,0,0,4.6288,4.6391,4.6416,4.6458,4.6541,4.661,4.6706,4.6794,4.6841,4.691,4.6989,4.7111,4.7088,4.714,4.7152,4.7215,4.733,4.7183,4.7185,4.7205,4.748,4.7495,4.7517,4.7323,4.7327,4.733,4.7472,0,4.6432,4.66,4.662,4.677,4.6852,4.6844,4.6927,4.6986,4.7016,4.7089,4.7123,4.7207,4.7173,4.7203,4.7265,4.7303,4.7385,4.7293,4.7395,4.7399,4.7374,4.7542,4.756,4.7691,4.7491,4.7494,4.7497,0,4.6621,4.6693,4.6851,4.692,4.6955,4.7029,4.711,4.7181,4.7247,4.7264,4.7321,4.7324,4.7421,4.7365,4.7498,4.7435,4.7479,4.7503,4.7509,4.7517,4.7453,4.7552,4.7733,4.7752,4.7527,4.7524,4.7522,0,4.6723,4.686,4.6971,4.7007,4.7091,4.7143,4.718,4.7242,4.7293,4.7364,4.7397,4.7479,4.7523,4.7586,4.761,4.7567,4.7741,4.7688,4.7756,4.7755,4.7791,4.7788,4.7978,4.7824,4.7824,4.7823,4.7823,0,4.6879,4.6975,4.7017,4.7085,4.7192,4.7213,4.7318,4.7353,4.7408,4.7482,4.7481,4.7551,4.758,4.7653,4.7673,4.7779,4.78,4.7815,4.7818,4.7813,4.7811,4.784,4.783,4.7828,4.7827,4.7826,4.7825,0,4.701,4.7042,4.7162,4.7231,4.725,4.7325,4.7384,4.7449,4.7478,4.7571,4.7594,4.7639,4.7725,4.7756,4.7862,4.7875,4.7996,4.7994,4.7973,4.7974,4.8039,4.8031,4.8253,4.8281,4.811,4.8112,4.8113,0,4.7106,4.7179,4.7255,4.7304,4.7343,4.7423,4.7474,4.7497,4.7551,4.763,4.7685,4.7771,4.784,4.7978,4.802,4.81,4.8097,4.817,4.8109,4.8101,4.8095,4.8089,4.8095,4.818,4.8182,4.8183,4.8184,0,4.7272,4.7284,4.7358,4.7437,4.7497,4.7561,4.7623,4.7663,4.7695,4.7755,4.7842,4.7896,4.8002,4.8086,4.8168,4.8206,4.82,4.8203,4.8223,4.8217,4.82,4.8206,4.8001,4.8198,4.8196,4.8195,4.8195,4.8194,4.7387,4.745,4.7512,4.7594,4.7642,4.7699,4.7763,4.7799,4.7872,4.7959,4.7969,4.8063,4.8125,4.8233,4.8275,4.8347,4.8328,4.8357,4.8363,4.8369,4.8372,4.8191,4.8363,4.8363,4.8362,4.8362,4.8362,0,4.755,4.7589,4.7664,4.7749,4.7812,4.7802,4.7868,4.7922,4.8004,4.8062,4.813,4.8229,4.831,4.8358,4.8439,4.8488,4.8487,4.8508,4.8503,4.8511,4.8387,4.8361,4.8507,4.8507,4.8507,4.8507,4.8507,4.8507,4.7642,4.7748,4.7766,4.7895,4.7934,4.8025,4.8064,4.8115,4.8161,4.8272,4.8339,4.8369,4.8423,4.8507,4.858,4.8592,4.862,4.8643,4.8652,4.8535,4.852,4.8506,4.8481,4.865,4.865,4.8769,4.877,4.8771]},{"header":{"parameterUnit":"m.s-1","parameterCategory":1,"la1":30.2991,"la2":30.254,"lo1":-89.0895,"lo2":-89.0444,"dy":0.0017,"dx":0.0017,"nx":28,"ny":28,"refTime":"2025-06-08T21:00:00:Z","depth":0,"parameterNumber":3,"parameterNumberName":"V-component_of_WINDS"},"data":[0,0,0,0,0,0,0,0,0,0,0,0,0,0,0,0,0,0,0,0,0,0,0,0,0,0,0,0,0,0,0,0,0,0,0,0,0,0,0,0,0,0,0,0,0,0,0,0,0,0,0,0,0,0,0,0,0,0,2.5777,2.5778,0,2.5863,2.5864,2.5865,2.5845,2.5844,2.5842,2.5841,2.5929,2.5933,2.5937,0,0,0,0,0,0,0,0,0,0,0,0,0,2.5595,2.5598,2.5777,2.5778,2.5779,2.5863,2.5864,2.5865,2.5846,2.5844,2.5842,2.584,2.5928,2.5933,2.5937,0,0,0,0,0,0,0,0,0,0,0,0,0,2.5677,2.5599,2.5777,2.5779,2.578,2.5863,2.5864,2.5866,2.5846,2.5844,2.5841,2.5839,2.5927,2.5932,2.5938,2.6023,0,0,2.5956,2.5958,0,0,0,0,0,0,0,0,2.5672,2.5683,2.5778,2.5779,2.5781,2.5841,2.5832,2.5919,2.5847,2.5821,2.5841,2.5838,2.5902,2.591,2.5931,2.6028,2.6031,2.5956,2.596,2.5962,2.5964,0,0,0,0,0,0,0,2.5666,2.568,2.5811,2.5779,2.5781,2.5776,2.5785,2.5849,2.5874,2.5823,2.5822,2.5832,2.5902,2.5926,2.5933,2.6033,2.5956,2.5961,2.5965,2.5967,2.6202,2.6205,0,0,0,0,0,0,2.5659,2.5675,2.5808,2.5814,2.5719,2.5781,2.5791,2.5824,2.5874,2.5879,2.5834,2.5831,2.5917,2.5926,2.5936,2.6039,2.5962,2.5968,2.5971,2.6199,2.6203,2.6206,0,0,0,0,0,0,2.5656,2.5672,2.5805,2.5744,2.576,2.5787,2.5824,2.5827,2.585,2.5882,2.5887,2.5854,2.5915,2.5928,2.6002,2.6042,2.5971,2.5976,2.6196,2.62,2.6204,2.6245,0,0,0,0,0,0,2.565,2.567,2.5703,2.5745,2.5764,2.5869,2.5827,2.5831,2.5861,2.5857,2.5901,2.5906,2.5914,2.5993,2.6007,2.6049,2.598,2.6193,2.6198,2.6203,2.6241,2.625,2.6259,0,0,0,0,0,2.5644,2.5712,2.5705,2.5721,2.5805,2.5871,2.5882,2.589,2.5864,2.5897,2.5917,2.5905,2.6035,2.6001,2.6017,2.606,2.619,2.6196,2.6202,2.6236,2.6248,2.6258,0,0,0,0,0,0,2.5675,2.5717,2.571,2.5793,2.5829,2.5868,2.591,2.5903,2.5946,2.5941,2.5949,2.5959,2.6034,2.6054,2.6016,2.6145,2.6109,2.6118,2.6129,2.6141,2.615,2.6143,2.5985,0,0,0,0,0,2.5691,2.5741,2.5775,2.5845,2.5863,2.5884,2.5913,2.5915,2.5952,2.5967,2.5993,2.6029,2.6078,2.6111,2.6157,2.6243,2.6252,2.6281,2.629,2.6297,2.6306,2.6352,2.6365,2.6226,2.6226,2.6226,0,0,2.5725,2.5755,2.5786,2.5852,2.588,2.5931,2.5896,2.5952,2.599,2.5976,2.6047,2.6067,2.6108,2.6188,2.6224,2.6207,2.6346,2.6305,2.6311,2.6315,2.6359,2.6372,2.6384,2.623,2.6229,2.6228,0,0,2.5814,2.5842,2.5903,2.5931,2.5973,2.5986,2.6001,2.6041,2.6053,2.6124,2.6114,2.6159,2.6244,2.6273,2.6299,2.6398,2.6388,2.6413,2.6461,2.6506,2.6517,2.6526,2.6562,2.6574,2.6421,2.6421,2.6421,0,2.5852,2.5929,2.5935,2.5992,2.6021,2.6009,2.6071,2.6098,2.6154,2.6174,2.6154,2.6259,2.6286,2.6372,2.6396,2.6417,2.6434,2.6408,2.6515,2.6524,2.6534,2.6567,2.658,2.6424,2.6424,2.6423,2.6423,0,2.5973,2.6026,2.607,2.6124,2.6158,2.6217,2.6231,2.6265,2.6265,2.6279,2.6352,2.6383,2.6436,2.6456,2.6457,2.6543,2.6531,2.6512,2.6476,2.6549,2.6581,2.6594,2.6428,2.6427,2.6426,2.6425,0,0,2.6085,2.614,2.6156,2.618,2.6225,2.6266,2.6324,2.6375,2.6404,2.6442,2.6491,2.6562,2.6545,2.6574,2.6578,2.6617,2.6693,2.6594,2.6595,2.6611,2.6789,2.6802,2.6817,2.6686,2.6689,2.6691,2.6785,0,2.6178,2.628,2.6287,2.6379,2.6428,2.6417,2.6467,2.6501,2.6516,2.6559,2.6576,2.6626,2.66,2.6618,2.6656,2.6675,2.6729,2.6669,2.6732,2.6734,2.6722,2.6834,2.6849,2.6937,2.6798,2.68,2.6801,0,2.63,2.6342,2.6439,2.6476,2.6497,2.6542,2.6589,2.6631,2.6668,2.6676,2.6708,2.6706,2.6765,2.6726,2.6808,2.6767,2.6793,2.6806,2.6809,2.6816,2.6772,2.6844,2.6965,2.6978,2.6821,2.6819,2.6818,0,2.6372,2.6452,2.652,2.6541,2.6586,2.6618,2.6638,2.6673,2.6703,2.6744,2.6763,2.6811,2.6837,2.6873,2.6883,2.6854,2.6964,2.6927,2.6973,2.6973,2.6997,2.6996,2.7125,2.7013,2.7013,2.7013,2.7013,0,2.6475,2.6535,2.6553,2.6595,2.6662,2.6668,2.6734,2.6752,2.6783,2.6828,2.6821,2.6864,2.6874,2.6919,2.6927,2.6993,2.7005,2.7013,2.7015,2.7014,2.7013,2.7032,2.7026,2.7016,2.7016,2.7015,2.7014,0,2.6567,2.6581,2.6655,2.6691,2.6702,2.6749,2.678,2.6821,2.6834,2.6892,2.6905,2.6927,2.6979,2.6992,2.7055,2.706,2.7138,2.7134,2.7126,2.7126,2.7171,2.7167,2.7317,2.7337,2.7212,2.7213,2.7214,0,2.6632,2.6678,2.6719,2.6749,2.677,2.6818,2.6849,2.6857,2.6888,2.6933,2.6968,2.7019,2.706,2.7144,2.7165,2.7212,2.7209,2.7258,2.7216,2.7214,2.721,2.7207,2.7212,2.7267,2.7268,2.7269,2.727,0,2.6747,2.6751,2.6795,2.6841,2.6878,2.6915,2.695,2.6975,2.6987,2.7024,2.7076,2.7108,2.7171,2.7222,2.727,2.729,2.7283,2.7283,2.7296,2.7296,2.729,2.7294,2.7148,2.728,2.7279,2.7278,2.7278,2.7277,2.6827,2.6867,2.6902,2.6951,2.6978,2.7011,2.705,2.7069,2.7113,2.7165,2.7166,2.7224,2.7259,2.7322,2.7345,2.739,2.7375,2.7394,2.7399,2.7404,2.7408,2.7282,2.7398,2.7398,2.7398,2.7398,2.7397,0,2.6941,2.6963,2.7007,2.7057,2.7095,2.7084,2.7122,2.7155,2.7205,2.7238,2.7279,2.7339,2.7388,2.7413,2.7461,2.7492,2.749,2.7505,2.7503,2.7507,2.7418,2.7402,2.7506,2.7506,2.7506,2.7506,2.7506,2.7506,2.7005,2.7071,2.708,2.716,2.7181,2.7237,2.726,2.729,2.7316,2.7384,2.7424,2.744,2.7469,2.7519,2.7564,2.7569,2.7588,2.7605,2.7609,2.7525,2.7514,2.7503,2.7488,2.7608,2.7608,2.7694,2.7695,2.7696]}]]